#timestamp,LO_Frequency,Hit,StdDev 
1613962815.3,286047006.3,N
1613962835.2,286047012.1,N
1613962855.0,286047015.5,N
1613962855.9,286047015.5,N
1613962875.8,286047011.4,N
1613962895.6,286047017.2,N
1613962915.4,286047018.2,Y
1613962935.3,286047011.3,P
1613962955.1,286047015.7,P
1613962975.9,286047018.8,P
1613962995.7,286047017.2,Y
1613963015.5,286047000.3,P
1613963035.4,286046999.3,N
1613963055.2,286047000.5,N
1613963075.0,286046997.9,N
1613963075.9,286046997.9,N
1613963095.8,286046996.4,N
1613963115.6,286047001.0,N
1613963135.5,286047004.2,N
1613963155.3,286046998.9,N
1613963175.1,286046999.7,N
1613963195.9,286047005.7,N
1613963215.7,286047010.2,N
1613963235.5,286047012.9,N
1613963255.4,286047017.0,Y
1613963275.2,286047010.6,P
1613963295.1,286047013.8,P
1613963296.0,286047013.8,N
1613963315.8,286047018.7,Y
1613963335.6,286047012.1,P
1613963355.5,286047005.6,P
1613963375.3,286047038.9,P
1613963395.2,286047025.6,N
1613963415.9,286047018.8,N
1613963435.7,286047010.4,N
1613963455.6,286046997.4,N
1613963475.4,286046987.0,N
1613963495.2,286046976.6,N
1613963515.1,286046969.0,N
1613963516.0,286046969.0,N
1613963535.8,286046965.6,N
1613963555.7,286046960.7,N
1613963575.5,286046959.3,N
1613963595.3,286046953.8,N
1613963615.2,286046955.9,N
1613963635.9,286046957.5,N
1613963655.7,286046958.2,N
1613963675.6,286046960.7,N
1613963695.4,286046958.8,N
1613963715.3,286046964.8,N
1613963735.1,286046963.1,N
1613963736.0,286046963.1,N
1613963755.8,286046958.6,N
1613963775.7,286046954.7,N
1613963795.5,286046947.8,N
1613963815.3,286046944.5,N
1613963835.2,286046941.6,N
1613963855.0,286046932.1,N
1613963855.9,286046932.1,N
1613963875.8,286046923.9,N
1613963895.6,286046912.2,Y
1613963915.4,286046937.9,P
1613963935.3,286046928.2,P
1613963955.1,286046920.2,P
1613963975.8,286046919.3,Y
1613963995.7,286046975.3,P
1613964015.5,286046974.8,N
1613964035.4,286046981.0,N
1613964055.2,286046988.5,N
1613964075.0,286046998.1,N
1613964075.9,286046998.1,N
1613964095.8,286046999.7,N
1613964115.6,286047000.2,N
1613964135.4,286046992.6,N
1613964155.3,286046987.7,N
1613964175.1,286046983.1,N
1613964195.9,286046978.6,N
1613964215.7,286046976.9,N
1613964235.5,286046974.9,N
1613964255.4,286046971.6,N
1613964275.2,286046965.2,N
1613964295.0,286046962.3,N
1613964295.9,286046962.3,N
1613964315.8,286046957.1,N
1613964335.6,286046969.1,N
1613964355.5,286046982.6,N
1613964375.3,286046996.7,N
1613964395.1,286047004.2,N
1613964415.9,286047011.1,N
1613964435.7,286047019.2,N
1613964455.6,286047020.6,N
1613964475.4,286047023.6,N
1613964495.2,286047037.5,N
1613964515.1,286047027.5,N
1613964516.0,286047027.5,N
1613964535.8,286047033.9,N
1613964555.6,286047040.6,N
1613964575.5,286047038.7,N
1613964595.3,286047036.8,N
1613964615.2,286047031.3,N
1613964635.9,286047022.2,N
1613964655.7,286047014.4,N
1613964675.6,286046999.0,N
1613964695.4,286046987.6,N
1613964715.3,286046983.3,N
1613964735.1,286046986.7,N
1613964736.0,286046986.7,N
1613964755.8,286046985.4,N
1613964775.7,286046986.3,N
1613964795.5,286046989.9,N
1613964815.3,286046990.5,N
1613964835.2,286046995.3,N
1613964855.0,286047000.2,N
1613964855.9,286047000.2,N
1613964875.8,286047008.1,N
1613964895.6,286047015.4,N
1613964915.5,286047018.2,N
1613964935.3,286047023.5,N
1613964955.1,286047028.7,N
1613964975.9,286047034.8,N
1613964995.7,286047036.5,N
1613965015.5,286047037.7,N
1613965035.4,286047034.7,N
1613965055.2,286047028.6,N
1613965075.1,286047025.2,N
1613965076.0,286047025.2,N
1613965095.8,286047014.8,N
1613965115.6,286047050.9,N
1613965135.5,286047031.9,N
1613965155.3,286047021.7,N
1613965175.1,286047020.4,N
1613965195.9,286047012.6,N
1613965215.7,286047015.1,N
1613965235.6,286047013.5,N
1613965255.4,286046993.8,N
1613965275.2,286046988.6,N
1613965295.1,286046986.8,N
1613965296.0,286046986.8,N
1613965315.8,286047019.2,N
1613965335.6,286047001.0,N
1613965355.5,286047007.0,N
1613965375.3,286047018.9,N
1613965395.2,286047025.5,N
1613965415.9,286047034.1,N
1613965435.7,286047038.9,N
1613965455.6,286047042.7,N
1613965475.4,286047042.1,N
1613965495.3,286047047.4,N
1613965515.1,286047046.2,N
1613965516.0,286047046.2,N
1613965535.8,286047051.3,N
1613965555.7,286047058.6,Y
1613965575.5,286047037.6,P
1613965595.3,286047039.3,P
1613965615.2,286047044.7,P
1613965635.0,286047047.6,Y
1613965635.9,286047047.6,P
1613965655.8,286047006.8,N
1613965675.6,286047012.3,N
1613965695.4,286047011.2,N
1613965715.3,286047031.9,N
1613965735.1,286047037.0,N
1613965755.9,286047024.8,N
1613965775.7,286047012.7,N
1613965795.5,286047008.3,N
1613965815.4,286047007.4,N
1613965835.2,286047012.1,N
1613965855.0,286047008.5,N
1613965855.9,286047008.5,N
1613965875.8,286047006.2,N
1613965895.6,286047006.6,N
1613965915.5,286047014.0,N
1613965935.3,286047016.8,N
1613965955.1,286047016.7,N
1613965975.9,286047015.4,N
1613965995.7,286047011.4,N
1613966045.6,286047010.5,E
1613966055.5,286047010.6,N
1613966075.3,286047008.9,P
1613966095.2,286047011.6,P
1613966115.0,286047011.8,Y
1613966115.9,286047011.8,P
1613966135.8,286047003.5,P
1613966155.6,286047004.6,N
1613966175.4,286047001.3,N
1613966195.3,286046998.3,N
1613966215.1,286046996.8,N
1613966235.8,286046997.0,N
1613966255.7,286046997.6,N
1613966275.5,286046997.8,N
1613966295.4,286046995.5,N
1613966315.2,286046994.0,N
1613966335.0,286046998.1,N
1613966366.0,286046999.8,E
1613966375.9,286047000.3,N
1613966395.7,286046997.5,P
